Location: Pasadena
(34.1478°N, 118.1436°W)
Time: 16:02:36
(UTC-08:00)

ISS - Visible Passes

Search period start: 23 January 2019 00:00
Search period end: 02 February 2019 00:00
Orbit: 404 x 410 km, 51.6° (Epoch: 24 January)

Date Brightness Start Highest point End Pass type
(mag) Time Alt. Az. Time Alt. Az. Time Alt. Az.
23 Jan -1.4 18:54:39 10° WNW 18:56:50 16° NNW 18:57:29 16° NNW visible
24 Jan -2.1 18:02:27 10° W 18:05:19 27° NW 18:08:12 10° NNE visible
26 Jan -1.2 17:57:38 10° WNW 17:59:21 13° NNW 18:01:04 10° N visible
